Regional Weather Roundup
Issued by NWS Cleveland, OH

Home | Current Version | Previous Version | Text Only | Print | Product List | Glossary On
Versions: 1 2 3 4 5 6 7 8 9 10 11 12 13 14 15 16 17 18 19 20 21 22 23 24 25 26 27 28 29 30 31 32 33 34 35 36 37 38 39 40 41 42 43 44 45 46 47 48 49 50
000
ASUS41 KCLE 282310
RWRCLE
OHIO REGIONAL WEATHER ROUNDUP
NATIONAL WEATHER SERVICE WILMINGTON, OH
600 PM EST WED JAN 28 2015

NOTE: "FAIR" INDICATES FEW OR NO CLOUDS BELOW 12,000 FEET WITH NO
SIGNIFICANT WEATHER AND/OR OBSTRUCTIONS TO VISIBILITY.

OHZ001>008-015>018-024>027-034-035-043-044-290000-
   NORTHWEST OHIO

CITY           SKY/WX    TMP DP  RH WIND       PRES   REMARKS
DEFIANCE       MOCLDY    25  14  63 S5        30.24F WCI  19
FINDLAY        MOCLDY    24  13  62 SE10      30.24F WCI  14
TOLEDO EXPRESS CLOUDY    23  13  65 SE3       30.26R
TOLEDO EXEC    MOCLDY    23  13  65 S8        30.27F WCI  14
LIMA           MOCLDY    26  14  60 S10       30.23F WCI  16
$$

OHZ009>014-019>023-028>033-038-089-290000-
   NORTHEAST OHIO

CITY           SKY/WX    TMP DP  RH WIND       PRES   REMARKS
CLE-HOPKINS    MOCLDY    25  11  55 S8        30.31F WCI  16
CLE-LAKEFRONT  CLEAR     21  16  81 CALM      30.30S
CUY CO. ARPT   MOCLDY    25  18  74 CALM      30.29S
LORAIN-ELYRIA  CLEAR     22  10  60 S8        30.28F WCI  12
ASHTABULA      CLEAR     23   4  44 S6        30.30S WCI  16
AKRON-CANTON   PTCLDY    21   4  47 SW6       30.28S WCI  13
WOOSTER        CLEAR     12   4  70 SE7       30.28S WCI   1
MANSFIELD      PTCLDY    23   8  52 SE12      30.23F WCI  12
YOUNGSTOWN     MOCLDY    23  -2  33 S3        30.28F
$$

OHZ042-051>053-060>062-070>072-077>081-290000-
  SOUTHWEST OHIO

CITY           SKY/WX    TMP DP  RH WIND       PRES   REMARKS
CINC-COVINGTON MOCLDY    33  19  56 SE9       30.24S WCI  25
CINC-LUNKEN    PTCLDY    32  18  56 SE3       30.28S
HAMILTON       PTCLDY    34  18  52 VRB5      30.26F WCI  30
DAYTON         MOCLDY    29  18  63 SE9       30.24F WCI  20
WRIGHT-PAT AFB PTCLDY    28  19  68 E5        30.25F WCI  23
DAYTON GENERAL PTCLDY    30  19  63 SE7       30.23F WCI  23
WILMINGTON     PTCLDY    29  17  61 SE8       30.24F WCI  21
$$

OHZ036-037-039>041-045>050-054>059-063>069-073>076-082>088-290000-
  CENTRAL AND SOUTHEAST OHIO

CITY           SKY/WX    TMP DP  RH WIND       PRES   REMARKS
COLUMBUS       MOCLDY    25  14  63 SE6       30.28F WCI  18
OSU AIRPORT    MOCLDY    26  12  55 SE6       30.27F WCI  19
BOLTON FIELD   CLEAR     25  14  63 SE6       30.27F WCI  18
RICKENBACK AFB PTCLDY    25  16  67 E3        30.28F
NEWARK         PTCLDY    24  12  60 E3        30.28F
MARION         MOCLDY    23  12  62 S8        30.25F WCI  14
LANCASTER      PTCLDY    24  15  68 NE3       30.29F
ZANESVILLE     PTCLDY    23  11  60 E5        30.30F WCI  17
NEW PHILLY     CLEAR     24   7  48 CALM      30.32R
$$


USA.gov is the U.S. government's official web portal to all federal, state and local government web resources and services.